Location: Montjean
(48.0167°N, 0.9667°W)
Time: 14:23:28
(UTC+02:00)

ISS - Visible Passes

Search period start: 15 July 2024 00:00
Search period end: 25 July 2024 00:00
Orbit: 410 x 424 km, 51.6° (Epoch: 15 July)

Date Brightness Start Highest point End Pass type
(mag) Time Alt. Az. Time Alt. Az. Time Alt. Az.
15 Jul -2.6 00:37:48 10° WNW 00:41:00 43° N 00:44:12 10° ENE visible
15 Jul -3.4 02:14:38 10° WNW 02:17:22 57° WNW 02:17:22 57° WNW visible
15 Jul -2.5 23:49:28 10° WNW 23:52:39 42° N 23:55:51 10° ENE visible
16 Jul -3.6 01:26:23 10° WNW 01:29:42 69° NNE 01:30:10 57° ENE visible
16 Jul -2.6 23:01:04 10° W 23:04:16 44° N 23:07:29 10° ENE visible
17 Jul -3.1 00:38:05 10° WNW 00:41:22 54° NNE 00:43:07 24° E visible
17 Jul -1.6 02:14:55 10° WNW 02:15:59 18° W 02:15:59 18° W visible
17 Jul -2.8 23:49:45 10° WNW 23:52:58 46° N 23:56:07 10° E visible
18 Jul -3.0 01:26:33 10° WNW 01:29:00 44° W 01:29:00 44° W visible
18 Jul -2.6 23:01:22 10° WNW 23:04:33 42° N 23:07:44 10° ENE visible
19 Jul -3.9 00:38:11 10° WNW 00:41:31 89° NNE 00:42:03 60° ESE visible
19 Jul -3.5 23:49:49 10° WNW 23:53:08 66° NNE 23:55:07 22° E visible
20 Jul -1.7 01:26:46 10° W 01:28:00 19° W 01:28:00 19° W visible
20 Jul -3.1 23:01:25 10° WNW 23:04:40 53° NNE 23:07:56 10° E visible
21 Jul -3.2 00:38:13 10° WNW 00:41:05 43° SW 00:41:05 43° SW visible
21 Jul -3.8 23:49:44 10° WNW 23:53:02 68° SSW 23:54:12 36° SE visible
22 Jul -3.8 23:01:16 10° WNW 23:04:36 85° NNE 23:07:20 14° ESE visible
23 Jul -1.8 00:38:28 10° W 00:40:12 19° WSW 00:40:12 19° WSW visible
23 Jul -2.7 23:49:41 10° W 23:52:40 31° SW 23:53:21 28° S visible
24 Jul -3.3 23:01:02 10° WNW 23:04:15 47° SSW 23:06:30 17° SE visible
